Flag for U.S.A. Weather past 2 weeks in Brownsville, Texas, U.S.A.

Now
56 °F

Light rain. Overcast.


Feels Like: 52 °F
Forecast: 44 / 56 °F
Wind: 16 mph from North

Location: Brownsville / South Padre Island International Airport

Current Time: Dec 27, 2014 at 10:41:23 PM

Latest Report: Dec 27, 2014 at 9:53 PM


Visibility: 8 mi

Pressure: 30.13 "Hg

Humidity: 90%

Dew point: 53 °F

Location of BrownsvilleLocation

Historic Weather in Brownsville — Graph

°F

Brownsville temperature yesterday

Maximum temperature yesterday: 77 °F (at 12:53 PM)
Minimum temperature yesterday: 65 °F (at 1:53 AM)
Average temperature yesterday: 69 °F

Past Weeks' High & Low Weather Summary

 TemperatureHumidityPressure
High80 °F (Dec 15, 10:53 AM)100% (Dec 16, 2:53 AM)30.22 "Hg (Dec 16, 2:53 AM)
Low39 °F (Dec 25, 4:53 AM)28% (Dec 24, 1:53 PM)29.52 "Hg (Dec 23, 6:53 AM)
Average67 °F81%29.99 "Hg
* Reported Dec 12 8:53 PM — Dec 27 8:53 PM, Brownsville, Weather by CustomWeather, © 2014

Note: Actual official high and low records may vary slightly from our data, if they occured in-between our weather recording intervals... More about our weather records

Advertising

Brownsville weather history for previous 24 hours

 ConditionsComfort  
Time TempWeatherWind HumidityBarometerVisibility
8:53 PM
Dec 27
60 °FLight rain. Mostly cloudy.16 mph90%30.08 "Hg8 mi
7:53 PM73 °FFog.3 mph90%30.02 "Hg6 mi
6:53 PM73 °FOvercast.3 mph90%30.00 "Hg8 mi
5:53 PM74 °FMostly cloudy.7 mph85%29.97 "Hg8 mi
4:53 PM75 °FPassing clouds.15 mph82%29.96 "Hg8 mi
3:53 PM77 °FScattered clouds.16 mph77%29.94 "Hg9 mi
2:53 PM77 °FPassing clouds.18 mph77%29.93 "Hg9 mi
1:53 PM77 °FPartly sunny.18 mph77%29.94 "Hg9 mi
12:53 PM78 °FPassing clouds.18 mph74%29.96 "Hg8 mi
11:53 AM76 °FPassing clouds.17 mph80%29.98 "Hg8 mi
11:03 AM74 °FScattered clouds.25 mph85%30.00 "Hg7 mi
10:53 AM74 °FBroken clouds.22 mph88%30.00 "Hg7 mi
9:53 AM73 °FFog.13 mph88%30.01 "Hg6 mi
8:53 AM72 °FFog.10 mph91%29.98 "Hg6 mi
8:01 AM71 °FFog.12 mph93%29.98 "Hg5 mi
7:00 AM71 °FPassing clouds.12 mph90%29.95 "Hg7 mi
6:00 AM70 °FFog.13 mph93%29.92 "Hg6 mi
4:53 AM70 °FFog.13 mph93%29.90 "Hg6 mi
3:53 AM70 °FFog.10 mph90%29.90 "Hg6 mi
2:53 AM70 °FPassing clouds.14 mph90%29.90 "Hg8 mi
1:53 AM70 °FFog.14 mph93%29.89 "Hg6 mi
12:53 AM70 °FOvercast.14 mph93%29.92 "Hg7 mi
11:53 PM
Dec 26
68 °FFog.7 mph93%29.93 "Hg5 mi
10:53 PM68 °FFog.6 mph93%29.94 "Hg5 mi
Weather by CustomWeather, © 2014

See weather overviewHow to use our weather pages